Time,TemperatureF,DewpointF,PressureIn,WindDirection,WindDirectionDegrees,WindSpeedMPH,WindSpeedGustMPH,Humidity,HourlyPrecipIn,Conditions,Clouds,dailyrainin,SoftwareType,DateUTC
2013-03-12 00:00:00,21.7,10.4,29.82,West,269,2.7,4.0,61,0.00,,---,0.00,VWS V14.01,2013-03-12 05:00:00,
2013-03-12 00:06:00,21.9,10.2,29.82,West,269,3.6,3.6,60,0.00,,---,0.00,VWS V14.01,2013-03-12 05:06:00,
2013-03-12 00:12:00,21.9,9.8,29.82,West,269,0.0,0.0,59,0.00,,---,0.00,VWS V14.01,2013-03-12 05:12:00,
2013-03-12 00:18:00,21.9,9.8,29.82,West,269,0.0,0.0,59,0.00,,---,0.00,VWS V14.01,2013-03-12 05:18:00,
2013-03-12 00:24:00,22.1,10.0,29.82,West,269,2.2,3.6,59,0.00,,---,0.00,VWS V14.01,2013-03-12 05:24:00,
2013-03-12 00:30:00,22.1,9.6,29.82,West,269,3.6,3.6,58,0.00,,---,0.00,VWS V14.01,2013-03-12 05:30:00,
2013-03-12 00:35:00,22.1,9.6,29.82,West,269,2.2,3.1,58,0.00,,---,0.00,VWS V14.01,2013-03-12 05:35:00,
2013-03-12 00:40:00,22.3,9.4,29.82,West,269,0.0,0.0,57,0.00,,---,0.00,VWS V14.01,2013-03-12 05:40:00,
2013-03-12 00:45:00,22.3,9.4,29.82,WSW,251,5.4,5.8,57,0.00,,---,0.00,VWS V14.01,2013-03-12 05:45:00,
2013-03-12 00:50:00,22.1,8.8,29.82,West,272,4.0,5.4,56,0.00,,---,0.00,VWS V14.01,2013-03-12 05:50:00,
2013-03-12 00:57:00,22.3,8.6,29.82,West,262,5.4,6.3,55,0.00,,---,0.00,VWS V14.01,2013-03-12 05:57:00,
2013-03-12 01:03:00,22.1,8.4,29.82,West,281,6.3,6.3,55,0.00,,---,0.00,VWS V14.01,2013-03-12 06:03:00,
2013-03-12 01:09:00,22.1,8.0,29.82,WNW,284,3.6,5.8,54,0.00,,---,0.00,VWS V14.01,2013-03-12 06:09:00,
2013-03-12 01:14:00,22.1,8.0,29.82,WNW,287,3.6,6.3,54,0.00,,---,0.00,VWS V14.01,2013-03-12 06:14:00,
2013-03-12 01:20:00,21.9,7.4,29.82,WNW,291,4.9,5.4,53,0.00,,---,0.00,VWS V14.01,2013-03-12 06:20:00,
2013-03-12 01:25:00,21.9,7.4,29.82,West,278,4.0,4.0,53,0.00,,---,0.00,VWS V14.01,2013-03-12 06:25:00,
2013-03-12 01:31:00,21.9,7.4,29.82,West,276,6.3,6.3,53,0.00,,---,0.00,VWS V14.01,2013-03-12 06:31:00,
2013-03-12 01:36:00,21.9,7.4,29.82,West,279,5.4,5.4,53,0.00,,---,0.00,VWS V14.01,2013-03-12 06:36:00,
2013-03-12 01:42:00,21.7,7.3,29.82,West,267,3.6,5.4,53,0.00,,---,0.00,VWS V14.01,2013-03-12 06:42:00,
2013-03-12 01:48:00,21.7,7.3,29.82,West,275,3.6,5.4,53,0.00,,---,0.00,VWS V14.01,2013-03-12 06:48:00,
2013-03-12 01:54:00,21.6,7.1,29.82,WNW,291,4.0,4.0,53,0.00,,---,0.00,VWS V14.01,2013-03-12 06:54:00,
2013-03-12 01:59:00,21.6,7.1,29.82,WNW,288,4.9,5.8,53,0.00,,---,0.00,VWS V14.01,2013-03-12 06:59:00,
2013-03-12 02:05:00,21.4,6.5,29.82,WNW,288,3.1,4.5,52,0.00,,---,0.00,VWS V14.01,2013-03-12 07:05:00,
2013-03-12 02:10:00,21.4,6.5,29.82,WNW,296,3.6,6.7,52,0.00,,---,0.00,VWS V14.01,2013-03-12 07:10:00,
2013-03-12 02:16:00,21.4,6.5,29.82,West,273,5.8,5.8,52,0.00,,---,0.00,VWS V14.01,2013-03-12 07:16:00,
2013-03-12 02:21:00,21.4,6.5,29.82,West,273,3.6,5.4,52,0.00,,---,0.00,VWS V14.01,2013-03-12 07:21:00,
2013-03-12 02:27:00,21.4,6.5,29.82,WNW,301,4.0,5.8,52,0.00,,---,0.00,VWS V14.01,2013-03-12 07:27:00,
2013-03-12 02:33:00,21.2,6.3,29.82,West,271,4.0,5.4,52,0.00,,---,0.00,VWS V14.01,2013-03-12 07:33:00,
2013-03-12 02:38:00,21.2,6.3,29.82,WNW,292,3.1,3.1,52,0.00,,---,0.00,VWS V14.01,2013-03-12 07:38:00,
2013-03-12 02:44:00,21.2,6.8,29.82,WNW,295,2.7,6.3,53,0.00,,---,0.00,VWS V14.01,2013-03-12 07:44:00,
2013-03-12 02:49:00,21.2,6.8,29.82,WNW,295,3.1,5.4,53,0.00,,---,0.00,VWS V14.01,2013-03-12 07:49:00,
2013-03-12 02:55:00,21.2,6.8,29.82,WNW,288,3.6,6.3,53,0.00,,---,0.00,VWS V14.01,2013-03-12 07:55:00,
2013-03-12 03:00:00,21.2,6.8,29.82,WNW,301,5.4,7.6,53,0.00,,---,0.00,VWS V14.01,2013-03-12 08:00:00,
2013-03-12 03:05:00,21.0,6.2,29.82,NW,307,4.0,8.1,52,0.00,,---,0.00,VWS V14.01,2013-03-12 08:05:00,
2013-03-12 03:11:00,21.0,6.6,29.82,WNW,284,3.6,5.4,53,0.00,,---,0.00,VWS V14.01,2013-03-12 08:11:00,
2013-03-12 03:16:00,21.0,6.6,29.82,WNW,292,3.1,5.8,53,0.00,,---,0.00,VWS V14.01,2013-03-12 08:16:00,
2013-03-12 03:22:00,21.0,6.6,29.82,West,268,4.0,4.0,53,0.00,,---,0.00,VWS V14.01,2013-03-12 08:22:00,
2013-03-12 03:27:00,20.8,6.4,29.82,NW,304,5.4,5.8,53,0.00,,---,0.00,VWS V14.01,2013-03-12 08:27:00,
2013-03-12 03:32:00,20.8,6.4,29.82,WNW,287,4.9,5.8,53,0.00,,---,0.00,VWS V14.01,2013-03-12 08:32:00,
2013-03-12 03:37:00,20.8,6.4,29.82,WNW,294,4.5,8.1,53,0.00,,---,0.00,VWS V14.01,2013-03-12 08:37:00,
2013-03-12 03:43:00,20.8,6.8,29.82,WNW,288,4.0,5.4,54,0.00,,---,0.00,VWS V14.01,2013-03-12 08:43:00,
2013-03-12 03:48:00,20.8,6.8,29.82,WNW,295,3.1,6.3,54,0.00,,---,0.00,VWS V14.01,2013-03-12 08:48:00,
2013-03-12 03:54:00,20.8,6.8,29.82,WNW,301,5.8,5.8,54,0.00,,---,0.00,VWS V14.01,2013-03-12 08:54:00,
2013-03-12 03:59:00,20.8,6.8,29.82,WNW,303,4.9,5.4,54,0.00,,---,0.00,VWS V14.01,2013-03-12 08:59:00,
2013-03-12 04:04:00,20.8,6.8,29.82,WNW,295,5.8,6.3,54,0.00,,---,0.00,VWS V14.01,2013-03-12 09:04:00,
2013-03-12 04:09:00,20.7,6.7,29.82,WNW,293,5.8,6.7,54,0.00,,---,0.00,VWS V14.01,2013-03-12 09:09:00,
2013-03-12 04:15:00,20.7,7.1,29.82,West,277,2.7,5.4,55,0.00,,---,0.00,VWS V14.01,2013-03-12 09:15:00,
2013-03-12 04:20:00,20.7,7.1,29.82,WNW,283,7.2,7.2,55,0.00,,---,0.00,VWS V14.01,2013-03-12 09:20:00,
2013-03-12 04:26:00,20.7,7.1,29.82,WNW,291,3.1,5.4,55,0.00,,---,0.00,VWS V14.01,2013-03-12 09:26:00,
2013-03-12 04:32:00,20.7,7.1,29.82,WNW,293,6.3,6.3,55,0.00,,---,0.00,VWS V14.01,2013-03-12 09:32:00,
2013-03-12 04:37:00,20.7,7.1,29.82,WNW,299,3.1,6.3,55,0.00,,---,0.00,VWS V14.01,2013-03-12 09:37:00,
2013-03-12 04:43:00,20.7,7.1,29.82,NW,304,4.0,7.6,55,0.00,,---,0.00,VWS V14.01,2013-03-12 09:43:00,
2013-03-12 04:48:00,20.7,7.1,29.82,NW,308,5.4,8.1,55,0.00,,---,0.00,VWS V14.01,2013-03-12 09:48:00,
2013-03-12 04:54:00,20.7,7.1,29.82,NW,325,5.8,5.8,55,0.00,,---,0.00,VWS V14.01,2013-03-12 09:54:00,
2013-03-12 04:59:00,20.7,7.1,29.82,WNW,303,4.0,5.4,55,0.00,,---,0.00,VWS V14.01,2013-03-12 09:59:00,
2013-03-12 05:05:00,20.7,7.1,29.82,NW,305,4.9,6.3,55,0.00,,---,0.00,VWS V14.01,2013-03-12 10:05:00,
2013-03-12 05:11:00,20.7,7.1,29.82,NW,320,8.1,8.1,55,0.00,,---,0.00,VWS V14.01,2013-03-12 10:11:00,
2013-03-12 05:16:00,20.7,7.1,29.82,NW,326,4.0,8.3,55,0.00,,---,0.00,VWS V14.01,2013-03-12 10:16:00,
2013-03-12 05:22:00,20.7,7.1,29.85,NW,315,5.8,7.6,55,0.00,,---,0.00,VWS V14.01,2013-03-12 10:22:00,
2013-03-12 05:27:00,20.7,7.1,29.85,North,353,3.6,7.6,55,0.00,,---,0.00,VWS V14.01,2013-03-12 10:27:00,
2013-03-12 05:32:00,20.7,7.1,29.85,NW,319,6.3,8.7,55,0.00,,---,0.00,VWS V14.01,2013-03-12 10:32:00,
2013-03-12 05:38:00,20.7,7.1,29.85,NW,311,6.3,8.1,55,0.00,,---,0.00,VWS V14.01,2013-03-12 10:38:00,
2013-03-12 05:43:00,20.5,6.9,29.85,WNW,298,7.6,11.0,55,0.00,,---,0.00,VWS V14.01,2013-03-12 10:43:00,
2013-03-12 05:49:00,20.5,6.9,29.85,NW,321,5.4,8.3,55,0.00,,---,0.00,VWS V14.01,2013-03-12 10:49:00,
2013-03-12 05:54:00,20.5,6.9,29.85,NW,325,4.9,6.3,55,0.00,,---,0.00,VWS V14.01,2013-03-12 10:54:00,
2013-03-12 06:00:00,20.5,6.9,29.85,NW,319,10.1,10.1,55,0.00,,---,0.00,VWS V14.01,2013-03-12 11:00:00,
2013-03-12 06:05:00,20.5,6.9,29.85,NW,317,8.7,8.7,55,0.00,,---,0.00,VWS V14.01,2013-03-12 11:05:00,
2013-03-12 06:12:00,20.3,6.7,29.85,WNW,283,3.1,10.1,55,0.00,,---,0.00,VWS V14.01,2013-03-12 11:12:00,
2013-03-12 06:18:00,20.3,6.7,29.85,NNW,330,5.8,8.7,55,0.00,,---,0.00,VWS V14.01,2013-03-12 11:18:00,
2013-03-12 06:24:00,20.3,6.7,29.85,NNW,330,6.3,10.1,55,0.00,,---,0.00,VWS V14.01,2013-03-12 11:24:00,
2013-03-12 06:29:00,20.3,6.7,29.85,NW,324,6.7,7.6,55,0.00,,---,0.00,VWS V14.01,2013-03-12 11:29:00,
2013-03-12 06:35:00,20.1,6.6,29.85,NNW,334,7.6,8.7,55,0.00,,---,0.00,VWS V14.01,2013-03-12 11:35:00,
2013-03-12 06:40:00,20.1,6.6,29.88,NNW,330,5.4,8.1,55,0.00,,---,0.00,VWS V14.01,2013-03-12 11:40:00,
2013-03-12 06:45:00,19.9,6.4,29.88,WNW,297,8.1,8.1,55,0.00,,---,0.00,VWS V14.01,2013-03-12 11:45:00,
2013-03-12 06:50:00,19.9,6.4,29.88,NNW,332,6.3,7.6,55,0.00,,---,0.00,VWS V14.01,2013-03-12 11:50:00,
2013-03-12 06:56:00,19.8,6.2,29.88,NNW,339,6.3,8.1,55,0.00,,---,0.00,VWS V14.01,2013-03-12 11:56:00,
2013-03-12 07:01:00,19.6,6.1,29.88,NNW,337,5.8,6.3,55,0.00,,---,0.00,VWS V14.01,2013-03-12 12:01:00,
2013-03-12 07:07:00,19.2,6.1,29.88,NW,320,6.3,6.3,56,0.00,,---,0.00,VWS V14.01,2013-03-12 12:07:00,
2013-03-12 07:12:00,18.7,5.6,29.88,NW,325,5.8,10.1,56,0.00,,---,0.00,VWS V14.01,2013-03-12 12:12:00,
2013-03-12 07:18:00,18.3,5.3,29.88,NW,314,10.1,10.5,56,0.00,,---,0.00,VWS V14.01,2013-03-12 12:18:00,
2013-03-12 07:23:00,18.3,5.3,29.88,NW,315,5.4,6.3,56,0.00,,---,0.00,VWS V14.01,2013-03-12 12:23:00,
2013-03-12 07:28:00,18.1,5.5,29.88,NW,317,7.6,10.1,57,0.00,,---,0.00,VWS V14.01,2013-03-12 12:28:00,
2013-03-12 07:33:00,18.1,5.5,29.88,NNW,340,7.6,7.6,57,0.00,,---,0.00,VWS V14.01,2013-03-12 12:33:00,
2013-03-12 07:39:00,18.0,5.3,29.88,NNW,344,8.7,12.8,57,0.00,,---,0.00,VWS V14.01,2013-03-12 12:39:00,
2013-03-12 07:45:00,17.8,5.1,29.88,NNW,338,8.3,11.0,57,0.00,,---,0.00,VWS V14.01,2013-03-12 12:45:00,
2013-03-12 07:50:00,17.8,5.1,29.88,North,357,7.6,7.6,57,0.00,,---,0.00,VWS V14.01,2013-03-12 12:50:00,
2013-03-12 07:56:00,17.6,5.0,29.88,NNW,336,5.8,8.7,57,0.00,,---,0.00,VWS V14.01,2013-03-12 12:56:00,
2013-03-12 08:01:00,17.6,5.0,29.88,NNW,331,5.4,8.1,57,0.00,,---,0.00,VWS V14.01,2013-03-12 13:01:00,
2013-03-12 08:07:00,17.6,5.3,29.88,NW,315,6.3,6.7,58,0.00,,---,0.00,VWS V14.01,2013-03-12 13:07:00,
2013-03-12 08:13:00,17.8,5.5,29.88,West,277,8.7,10.1,58,0.00,,---,0.00,VWS V14.01,2013-03-12 13:13:00,
2013-03-12 08:18:00,17.8,5.5,29.88,NW,326,6.3,6.3,58,0.00,,---,0.00,VWS V14.01,2013-03-12 13:18:00,
2013-03-12 08:23:00,18.0,5.7,29.88,NNW,329,5.8,8.1,58,0.00,,---,0.00,VWS V14.01,2013-03-12 13:23:00,
2013-03-12 08:28:00,18.3,6.4,29.88,NW,305,5.8,8.3,59,0.00,,---,0.00,VWS V14.01,2013-03-12 13:28:00,
2013-03-12 08:34:00,18.7,6.7,29.88,WNW,288,8.1,10.1,59,0.00,,---,0.00,VWS V14.01,2013-03-12 13:34:00,
2013-03-12 08:39:00,19.0,6.7,29.91,NW,308,5.4,6.3,58,0.00,,---,0.00,VWS V14.01,2013-03-12 13:39:00,
2013-03-12 08:45:00,19.2,6.9,29.91,NW,310,5.8,7.2,58,0.00,,---,0.00,VWS V14.01,2013-03-12 13:45:00,
2013-03-12 08:51:00,19.8,7.4,29.91,NW,315,5.8,10.1,58,0.00,,---,0.00,VWS V14.01,2013-03-12 13:51:00,
2013-03-12 08:57:00,20.1,7.3,29.91,NW,316,8.7,10.1,57,0.00,,---,0.00,VWS V14.01,2013-03-12 13:57:00,
2013-03-12 09:03:00,20.3,7.1,29.91,WNW,303,8.7,10.1,56,0.00,,---,0.00,VWS V14.01,2013-03-12 14:03:00,
2013-03-12 09:08:00,20.3,7.1,29.91,NW,305,8.3,9.6,56,0.00,,---,0.00,VWS V14.01,2013-03-12 14:08:00,
2013-03-12 09:13:00,20.3,7.5,29.91,NW,307,11.0,12.3,57,0.00,,---,0.00,VWS V14.01,2013-03-12 14:13:00,
2013-03-12 09:19:00,20.5,7.7,29.91,NW,309,5.8,6.7,57,0.00,,---,0.00,VWS V14.01,2013-03-12 14:19:00,
2013-03-12 09:24:00,20.5,7.7,29.91,NNW,332,11.0,11.0,57,0.00,,---,0.00,VWS V14.01,2013-03-12 14:24:00,
2013-03-12 09:30:00,20.8,8.0,29.91,WNW,291,5.8,8.7,57,0.00,,---,0.00,VWS V14.01,2013-03-12 14:30:00,
2013-03-12 09:35:00,21.0,8.2,29.91,NW,309,10.5,11.0,57,0.00,,---,0.00,VWS V14.01,2013-03-12 14:35:00,
2013-03-12 09:42:00,21.2,8.4,29.91,NW,317,2.7,4.5,57,0.00,,---,0.00,VWS V14.01,2013-03-12 14:42:00,
2013-03-12 09:47:00,21.4,8.1,29.91,NW,319,6.3,12.8,56,0.00,,---,0.00,VWS V14.01,2013-03-12 14:47:00,
2013-03-12 09:52:00,21.7,8.1,29.91,NW,320,5.4,8.1,55,0.00,,---,0.00,VWS V14.01,2013-03-12 14:52:00,
2013-03-12 09:58:00,23.0,8.9,29.91,NW,314,11.0,11.9,54,0.00,,---,0.00,VWS V14.01,2013-03-12 14:58:00,
2013-03-12 10:03:00,24.1,9.4,29.91,NW,308,7.6,9.6,53,0.00,,---,0.00,VWS V14.01,2013-03-12 15:03:00,
2013-03-12 10:09:00,24.6,9.1,29.91,NW,312,7.6,10.5,51,0.00,,---,0.00,VWS V14.01,2013-03-12 15:09:00,
2013-03-12 10:14:00,24.4,8.5,29.91,WNW,291,6.3,6.7,50,0.00,,---,0.00,VWS V14.01,2013-03-12 15:14:00,
2013-03-12 10:20:00,24.1,7.7,29.91,NW,304,5.8,9.2,49,0.00,,---,0.00,VWS V14.01,2013-03-12 15:20:00,
2013-03-12 10:26:00,23.7,7.8,29.94,WNW,302,7.6,8.3,50,0.00,,---,0.00,VWS V14.01,2013-03-12 15:26:00,
2013-03-12 10:31:00,23.7,7.8,29.94,NNW,333,12.8,12.8,50,0.00,,---,0.00,VWS V14.01,2013-03-12 15:31:00,
2013-03-12 10:37:00,24.1,8.6,29.94,WNW,301,12.8,12.8,51,0.00,,---,0.00,VWS V14.01,2013-03-12 15:37:00,
2013-03-12 10:43:00,24.8,8.8,29.94,WNW,296,10.5,13.2,50,0.00,,---,0.00,VWS V14.01,2013-03-12 15:43:00,
2013-03-12 10:48:00,25.0,9.0,29.94,NW,317,8.3,12.8,50,0.00,,---,0.00,VWS V14.01,2013-03-12 15:48:00,
2013-03-12 10:54:00,26.6,10.5,29.94,NW,314,12.3,12.3,50,0.00,,---,0.00,VWS V14.01,2013-03-12 15:54:00,
2013-03-12 10:59:00,27.3,10.7,29.94,NNW,339,8.3,11.0,49,0.00,,---,0.00,VWS V14.01,2013-03-12 15:59:00,
2013-03-12 11:05:00,27.3,11.1,29.94,NW,326,9.2,11.0,50,0.00,,---,0.00,VWS V14.01,2013-03-12 16:05:00,
2013-03-12 11:11:00,27.0,10.8,29.94,NNW,345,6.7,12.8,50,0.00,,---,0.00,VWS V14.01,2013-03-12 16:11:00,
2013-03-12 11:17:00,27.3,11.1,29.94,NNW,328,8.7,11.0,50,0.00,,---,0.00,VWS V14.01,2013-03-12 16:17:00,
2013-03-12 11:23:00,26.6,10.0,29.94,NW,311,4.0,10.1,49,0.00,,---,0.00,VWS V14.01,2013-03-12 16:23:00,
2013-03-12 11:28:00,26.4,10.3,29.94,NW,308,8.1,12.3,50,0.00,,---,0.00,VWS V14.01,2013-03-12 16:28:00,
2013-03-12 11:33:00,26.8,9.7,29.94,NNW,346,8.7,8.7,48,0.00,,---,0.00,VWS V14.01,2013-03-12 16:33:00,
2013-03-12 11:39:00,28.4,10.8,29.94,NW,304,7.6,8.7,47,0.00,,---,0.00,VWS V14.01,2013-03-12 16:39:00,
2013-03-12 11:44:00,28.9,10.3,29.94,WNW,293,12.8,15.4,45,0.00,,---,0.00,VWS V14.01,2013-03-12 16:44:00,
2013-03-12 11:50:00,29.8,10.6,29.94,West,272,7.6,10.1,44,0.00,,---,0.00,VWS V14.01,2013-03-12 16:50:00,
2013-03-12 11:55:00,29.3,10.1,29.94,WNW,298,9.6,12.8,44,0.00,,---,0.00,VWS V14.01,2013-03-12 16:55:00,
2013-03-12 12:00:00,29.3,10.1,29.94,NNW,331,10.1,12.8,44,0.00,,---,0.00,VWS V14.01,2013-03-12 17:00:00,
2013-03-12 12:06:00,29.7,9.9,29.94,NNW,345,8.7,11.9,43,0.00,,---,0.00,VWS V14.01,2013-03-12 17:06:00,
2013-03-12 12:12:00,28.8,9.1,29.97,West,276,8.1,13.2,43,0.00,,---,0.00,VWS V14.01,2013-03-12 17:12:00,
2013-03-12 12:18:00,28.8,9.1,29.97,NW,317,12.8,15.0,43,0.00,,---,0.00,VWS V14.01,2013-03-12 17:18:00,
2013-03-12 12:23:00,28.6,8.9,29.97,WNW,302,10.1,11.9,43,0.00,,---,0.00,VWS V14.01,2013-03-12 17:23:00,
2013-03-12 12:29:00,29.8,9.6,29.97,NNW,338,12.8,15.4,42,0.00,,---,0.00,VWS V14.01,2013-03-12 17:29:00,
2013-03-12 12:34:00,31.1,10.7,29.97,NW,318,10.5,12.8,42,0.00,,---,0.00,VWS V14.01,2013-03-12 17:34:00,
2013-03-12 12:39:00,31.3,10.3,29.97,WNW,298,10.5,12.3,41,0.00,,---,0.00,VWS V14.01,2013-03-12 17:39:00,
2013-03-12 12:44:00,32.0,11.0,29.97,NW,308,8.7,10.1,41,0.00,,---,0.00,VWS V14.01,2013-03-12 17:44:00,
2013-03-12 12:50:00,30.9,10.0,29.97,WNW,296,10.5,13.2,41,0.00,,---,0.00,VWS V14.01,2013-03-12 17:50:00,
2013-03-12 12:55:00,31.5,10.5,29.97,NW,315,14.5,14.5,41,0.00,,---,0.00,VWS V14.01,2013-03-12 17:55:00,
2013-03-12 13:00:00,32.7,11.6,29.97,WNW,302,10.1,16.8,41,0.00,,---,0.00,VWS V14.01,2013-03-12 18:00:00,
2013-03-12 13:05:00,32.7,11.6,29.97,NW,321,7.6,15.0,41,0.00,,---,0.00,VWS V14.01,2013-03-12 18:05:00,
2013-03-12 13:12:00,31.8,10.8,29.97,NW,310,12.3,12.8,41,0.00,,---,0.00,VWS V14.01,2013-03-12 18:12:00,
2013-03-12 13:19:00,32.2,10.6,29.97,NW,307,13.2,17.4,40,0.00,,---,0.00,VWS V14.01,2013-03-12 18:19:00,
2013-03-12 13:24:00,31.1,10.2,29.97,NW,324,8.3,13.2,41,0.00,,---,0.00,VWS V14.01,2013-03-12 18:24:00,
2013-03-12 13:29:00,32.2,10.6,29.97,North,353,6.3,14.5,40,0.00,,---,0.00,VWS V14.01,2013-03-12 18:29:00,
2013-03-12 13:35:00,33.3,12.1,29.97,WNW,303,7.6,11.4,41,0.00,,---,0.00,VWS V14.01,2013-03-12 18:35:00,
2013-03-12 13:40:00,33.1,12.0,29.97,NNW,332,8.3,13.2,41,0.00,,---,0.00,VWS V14.01,2013-03-12 18:40:00,
2013-03-12 13:45:00,32.2,11.1,29.97,NW,315,15.4,17.4,41,0.00,,---,0.00,VWS V14.01,2013-03-12 18:45:00,
2013-03-12 13:50:00,32.4,11.3,29.97,NW,321,12.8,13.6,41,0.00,,---,0.00,VWS V14.01,2013-03-12 18:50:00,
2013-03-12 13:56:00,32.0,11.0,29.97,NW,313,15.9,15.9,41,0.00,,---,0.00,VWS V14.01,2013-03-12 18:56:00,
2013-03-12 14:01:00,30.7,9.8,29.97,WNW,296,12.8,15.4,41,0.00,,---,0.00,VWS V14.01,2013-03-12 19:01:00,
2013-03-12 14:07:00,32.7,11.6,29.97,NW,324,17.4,17.4,41,0.00,,---,0.00,VWS V14.01,2013-03-12 19:07:00,
2013-03-12 14:12:00,31.8,10.8,29.97,NW,310,7.6,15.0,41,0.00,,---,0.00,VWS V14.01,2013-03-12 19:12:00,
2013-03-12 14:18:00,30.9,10.0,29.97,WNW,298,12.3,15.0,41,0.00,,---,0.00,VWS V14.01,2013-03-12 19:18:00,
2013-03-12 14:23:00,30.7,9.8,29.97,NNW,338,8.3,15.0,41,0.00,,---,0.00,VWS V14.01,2013-03-12 19:23:00,
2013-03-12 14:28:00,31.8,10.8,29.97,WNW,299,6.3,11.4,41,0.00,,---,0.00,VWS V14.01,2013-03-12 19:28:00,
2013-03-12 14:33:00,31.5,10.5,29.97,NNW,338,10.5,19.7,41,0.00,,---,0.00,VWS V14.01,2013-03-12 19:33:00,
2013-03-12 14:39:00,30.9,10.5,29.97,NW,314,15.4,17.4,42,0.00,,---,0.00,VWS V14.01,2013-03-12 19:39:00,
2013-03-12 14:45:00,31.5,11.0,29.97,WNW,298,11.4,15.4,42,0.00,,---,0.00,VWS V14.01,2013-03-12 19:45:00,
2013-03-12 14:50:00,32.5,11.5,29.97,WNW,284,8.1,16.8,41,0.00,,---,0.00,VWS V14.01,2013-03-12 19:50:00,
2013-03-12 14:56:00,33.3,12.1,29.97,NNW,342,4.0,8.3,41,0.00,,---,0.00,VWS V14.01,2013-03-12 19:56:00,
2013-03-12 15:01:00,32.4,11.3,29.97,NW,316,14.5,14.5,41,0.00,,---,0.00,VWS V14.01,2013-03-12 20:01:00,
2013-03-12 15:07:00,31.3,10.3,29.97,WNW,301,4.9,11.0,41,0.00,,---,0.00,VWS V14.01,2013-03-12 20:07:00,
2013-03-12 15:12:00,32.0,10.4,29.97,NW,326,13.2,15.4,40,0.00,,---,0.00,VWS V14.01,2013-03-12 20:12:00,
2013-03-12 15:17:00,32.5,10.9,29.97,NNW,329,16.3,19.7,40,0.00,,---,0.00,VWS V14.01,2013-03-12 20:17:00,
2013-03-12 15:23:00,31.1,9.6,29.97,NNW,338,12.8,14.5,40,0.00,,---,0.00,VWS V14.01,2013-03-12 20:23:00,
2013-03-12 15:28:00,31.5,9.9,29.97,NNW,333,17.9,17.9,40,0.00,,---,0.00,VWS V14.01,2013-03-12 20:28:00,
2013-03-12 15:34:00,30.2,7.7,29.97,NNW,335,13.2,14.1,38,0.00,,---,0.00,VWS V14.01,2013-03-12 20:34:00,
2013-03-12 15:39:00,29.8,6.8,29.97,North,357,11.0,13.6,37,0.00,,---,0.00,VWS V14.01,2013-03-12 20:39:00,
2013-03-12 15:45:00,30.0,6.3,29.97,NNW,332,17.4,19.2,36,0.00,,---,0.00,VWS V14.01,2013-03-12 20:45:00,
2013-03-12 15:51:00,29.8,6.2,29.97,NW,306,8.7,17.0,36,0.00,,---,0.00,VWS V14.01,2013-03-12 20:51:00,
2013-03-12 15:56:00,30.0,5.7,30.00,NNW,329,22.8,22.8,35,0.00,,---,0.00,VWS V14.01,2013-03-12 20:56:00,
2013-03-12 16:02:00,29.7,5.4,30.00,NNW,341,16.3,16.3,35,0.00,,---,0.00,VWS V14.01,2013-03-12 21:02:00,
2013-03-12 16:07:00,29.7,5.4,30.00,NW,319,10.1,12.8,35,0.00,,---,0.00,VWS V14.01,2013-03-12 21:07:00,
2013-03-12 16:12:00,30.6,6.2,30.00,NW,313,15.0,17.9,35,0.00,,---,0.00,VWS V14.01,2013-03-12 21:12:00,
2013-03-12 16:17:00,31.1,6.7,30.00,NNW,334,15.9,15.9,35,0.00,,---,0.00,VWS V14.01,2013-03-12 21:17:00,
2013-03-12 16:22:00,31.1,6.0,30.00,NNW,344,12.8,19.7,34,0.00,,---,0.00,VWS V14.01,2013-03-12 21:22:00,
2013-03-12 16:28:00,30.9,6.5,30.00,NW,315,11.0,14.1,35,0.00,,---,0.00,VWS V14.01,2013-03-12 21:28:00,
2013-03-12 16:34:00,31.3,6.2,30.00,North,353,11.0,12.8,34,0.00,,---,0.00,VWS V14.01,2013-03-12 21:34:00,
2013-03-12 16:39:00,30.9,5.9,30.00,NW,311,10.1,12.3,34,0.00,,---,0.00,VWS V14.01,2013-03-12 21:39:00,
2013-03-12 16:45:00,30.9,5.9,30.00,NNW,330,8.3,10.1,34,0.00,,---,0.00,VWS V14.01,2013-03-12 21:45:00,
2013-03-12 16:50:00,30.2,5.2,30.00,NW,304,14.5,15.0,34,0.00,,---,0.00,VWS V14.01,2013-03-12 21:50:00,
2013-03-12 16:55:00,29.5,4.6,30.00,NNW,340,15.4,15.9,34,0.00,,---,0.00,VWS V14.01,2013-03-12 21:55:00,
2013-03-12 17:01:00,29.3,4.4,30.00,NNW,344,13.6,13.6,34,0.00,,---,0.00,VWS V14.01,2013-03-12 22:01:00,
2013-03-12 17:07:00,29.5,5.2,30.03,NW,320,7.6,19.7,35,0.00,,---,0.00,VWS V14.01,2013-03-12 22:07:00,
2013-03-12 17:13:00,29.5,5.2,30.03,NW,314,14.5,14.5,35,0.00,,---,0.00,VWS V14.01,2013-03-12 22:13:00,
2013-03-12 17:18:00,29.5,5.2,30.03,NNW,342,11.0,13.2,35,0.00,,---,0.00,VWS V14.01,2013-03-12 22:18:00,
2013-03-12 17:24:00,30.0,5.7,30.03,North,349,8.3,8.3,35,0.00,,---,0.00,VWS V14.01,2013-03-12 22:24:00,
2013-03-12 17:30:00,30.4,5.4,30.03,NW,326,12.3,15.4,34,0.00,,---,0.00,VWS V14.01,2013-03-12 22:30:00,
2013-03-12 17:35:00,30.2,5.2,30.03,NW,304,8.7,15.0,34,0.00,,---,0.00,VWS V14.01,2013-03-12 22:35:00,
2013-03-12 17:41:00,30.0,5.1,30.03,NNW,346,12.3,15.4,34,0.00,,---,0.00,VWS V14.01,2013-03-12 22:41:00,
2013-03-12 17:46:00,29.7,4.7,30.03,NNW,338,8.1,15.0,34,0.00,,---,0.00,VWS V14.01,2013-03-12 22:46:00,
2013-03-12 17:51:00,29.7,4.7,30.03,North,357,8.1,12.8,34,0.00,,---,0.00,VWS V14.01,2013-03-12 22:51:00,
2013-03-12 17:58:00,29.1,4.3,30.03,North,0,8.1,11.0,34,0.00,,---,0.00,VWS V14.01,2013-03-12 22:58:00,
2013-03-12 18:04:00,28.6,3.8,30.03,North,349,6.3,13.2,34,0.00,,---,0.00,VWS V14.01,2013-03-12 23:04:00,
2013-03-12 18:09:00,28.4,4.2,30.06,NNW,332,10.1,13.2,35,0.00,,---,0.00,VWS V14.01,2013-03-12 23:09:00,
2013-03-12 18:14:00,27.9,3.8,30.06,NNW,336,6.3,12.8,35,0.00,,---,0.00,VWS V14.01,2013-03-12 23:14:00,
2013-03-12 18:19:00,27.5,3.5,30.06,North,0,10.1,14.5,35,0.00,,---,0.00,VWS V14.01,2013-03-12 23:19:00,
2013-03-12 18:25:00,27.1,3.1,30.06,North,357,8.3,8.7,35,0.00,,---,0.00,VWS V14.01,2013-03-12 23:25:00,
2013-03-12 18:30:00,26.8,2.8,30.06,North,0,6.3,9.2,35,0.00,,---,0.00,VWS V14.01,2013-03-12 23:30:00,
2013-03-12 18:36:00,26.6,3.3,30.06,North,353,8.3,9.6,36,0.00,,---,0.00,VWS V14.01,2013-03-12 23:36:00,
2013-03-12 18:41:00,26.2,2.9,30.06,North,357,5.4,8.1,36,0.00,,---,0.00,VWS V14.01,2013-03-12 23:41:00,
2013-03-12 18:47:00,25.9,2.6,30.06,North,353,5.4,11.0,36,0.00,,---,0.00,VWS V14.01,2013-03-12 23:47:00,
2013-03-12 18:53:00,25.5,2.3,30.06,North,0,4.0,8.1,36,0.00,,---,0.00,VWS V14.01,2013-03-12 23:53:00,
2013-03-12 18:58:00,25.3,2.1,30.06,North,357,8.1,8.1,36,0.00,,---,0.00,VWS V14.01,2013-03-12 23:58:00,
2013-03-12 19:04:00,25.2,2.0,30.06,North,0,8.1,10.5,36,0.00,,---,0.00,VWS V14.01,2013-03-13 00:04:00,
2013-03-12 19:09:00,24.8,2.2,30.09,North,353,11.0,11.0,37,0.00,,---,0.00,VWS V14.01,2013-03-13 00:09:00,
2013-03-12 19:15:00,24.4,1.9,30.09,North,353,6.3,6.7,37,0.00,,---,0.00,VWS V14.01,2013-03-13 00:15:00,
2013-03-12 19:21:00,23.9,2.0,30.09,North,353,8.3,8.3,38,0.00,,---,0.00,VWS V14.01,2013-03-13 00:21:00,
2013-03-12 19:26:00,23.9,2.0,30.09,NNW,327,6.3,8.7,38,0.00,,---,0.00,VWS V14.01,2013-03-13 00:26:00,
2013-03-12 19:32:00,23.7,1.8,30.09,North,2,5.8,7.6,38,0.00,,---,0.00,VWS V14.01,2013-03-13 00:32:00,
2013-03-12 19:38:00,23.2,1.4,30.09,North,0,5.8,5.8,38,0.00,,---,0.00,VWS V14.01,2013-03-13 00:38:00,
2013-03-12 19:43:00,23.0,1.8,30.09,North,0,3.6,5.8,39,0.00,,---,0.00,VWS V14.01,2013-03-13 00:43:00,
2013-03-12 19:49:00,22.8,1.6,30.09,NNW,336,4.9,8.1,39,0.00,,---,0.00,VWS V14.01,2013-03-13 00:49:00,
2013-03-12 19:54:00,22.6,1.4,30.09,NNW,334,5.4,6.3,39,0.00,,---,0.00,VWS V14.01,2013-03-13 00:54:00,
2013-03-12 20:00:00,22.3,1.6,30.09,NNW,344,6.3,7.6,40,0.00,,---,0.00,VWS V14.01,2013-03-13 01:00:00,
2013-03-12 20:05:00,22.1,1.5,30.09,NNW,329,5.4,5.4,40,0.00,,---,0.00,VWS V14.01,2013-03-13 01:05:00,
2013-03-12 20:12:00,21.9,1.3,30.12,NW,313,4.9,4.9,40,0.00,,---,0.00,VWS V14.01,2013-03-13 01:12:00,
2013-03-12 20:18:00,21.4,0.8,30.12,WNW,294,7.6,7.6,40,0.00,,---,0.00,VWS V14.01,2013-03-13 01:18:00,
2013-03-12 20:24:00,21.2,2.2,30.12,NW,314,4.0,5.8,43,0.00,,---,0.00,VWS V14.01,2013-03-13 01:24:00,
2013-03-12 20:29:00,21.0,2.5,30.12,NW,311,4.9,7.6,44,0.00,,---,0.00,VWS V14.01,2013-03-13 01:29:00,
2013-03-12 20:35:00,20.8,3.3,30.12,NW,312,5.8,7.6,46,0.00,,---,0.00,VWS V14.01,2013-03-13 01:35:00,
2013-03-12 20:40:00,20.5,3.9,30.12,NW,317,8.1,8.1,48,0.00,,---,0.00,VWS V14.01,2013-03-13 01:40:00,
2013-03-12 20:46:00,20.5,4.8,30.12,WNW,286,6.3,7.6,50,0.00,,---,0.00,VWS V14.01,2013-03-13 01:46:00,
2013-03-12 20:51:00,20.5,4.8,30.12,NW,313,7.6,10.5,50,0.00,,---,0.00,VWS V14.01,2013-03-13 01:51:00,
2013-03-12 20:57:00,20.3,4.6,30.12,WNW,289,5.4,5.4,50,0.00,,---,0.00,VWS V14.01,2013-03-13 01:57:00,
2013-03-12 21:03:00,19.9,4.7,30.12,WNW,288,3.6,10.5,51,0.00,,---,0.00,VWS V14.01,2013-03-13 02:03:00,
2013-03-12 21:08:00,19.8,5.0,30.15,NW,305,7.6,9.2,52,0.00,,---,0.00,VWS V14.01,2013-03-13 02:08:00,
2013-03-12 21:14:00,19.8,5.4,30.15,NW,322,8.7,10.5,53,0.00,,---,0.00,VWS V14.01,2013-03-13 02:14:00,
2013-03-12 21:20:00,19.6,5.2,30.15,NW,305,5.8,7.6,53,0.00,,---,0.00,VWS V14.01,2013-03-13 02:20:00,
2013-03-12 21:25:00,19.6,5.2,30.15,NW,319,7.6,8.1,53,0.00,,---,0.00,VWS V14.01,2013-03-13 02:25:00,
2013-03-12 21:30:00,19.4,5.9,30.15,NW,318,5.8,11.0,55,0.00,,---,0.00,VWS V14.01,2013-03-13 02:30:00,
2013-03-12 21:35:00,19.4,5.9,30.15,NW,304,10.1,15.0,55,0.00,,---,0.00,VWS V14.01,2013-03-13 02:35:00,
2013-03-12 21:40:00,19.2,6.1,30.15,NW,318,10.5,11.4,56,0.00,,---,0.00,VWS V14.01,2013-03-13 02:40:00,
2013-03-12 21:46:00,19.0,6.3,30.15,NW,318,10.1,11.0,57,0.00,,---,0.00,VWS V14.01,2013-03-13 02:46:00,
2013-03-12 21:52:00,18.7,6.4,30.15,WNW,287,8.3,16.8,58,0.00,,---,0.00,VWS V14.01,2013-03-13 02:52:00,
2013-03-12 21:57:00,18.7,6.7,30.15,WNW,299,5.8,17.0,59,0.00,,---,0.00,VWS V14.01,2013-03-13 02:57:00,
2013-03-12 22:03:00,18.5,6.6,30.15,NW,304,3.1,10.5,59,0.00,,---,0.00,VWS V14.01,2013-03-13 03:03:00,
2013-03-12 22:08:00,18.3,6.4,30.15,NW,306,13.6,13.6,59,0.00,,---,0.00,VWS V14.01,2013-03-13 03:08:00,
2013-03-12 22:14:00,18.0,6.4,30.15,NW,308,10.1,13.2,60,0.00,,---,0.00,VWS V14.01,2013-03-13 03:14:00,
2013-03-12 22:20:00,17.8,6.3,30.15,NW,312,11.0,17.0,60,0.00,,---,0.00,VWS V14.01,2013-03-13 03:20:00,
2013-03-12 22:25:00,17.6,6.4,30.18,NW,312,12.3,13.6,61,0.00,,---,0.00,VWS V14.01,2013-03-13 03:25:00,
2013-03-12 22:31:00,17.4,6.3,30.18,NW,319,8.7,14.5,61,0.00,,---,0.00,VWS V14.01,2013-03-13 03:31:00,
2013-03-12 22:37:00,17.1,5.9,30.18,NNW,327,6.3,8.3,61,0.00,,---,0.00,VWS V14.01,2013-03-13 03:37:00,
2013-03-12 22:42:00,17.1,5.9,30.18,NW,309,12.8,12.8,61,0.00,,---,0.00,VWS V14.01,2013-03-13 03:42:00,
2013-03-12 22:47:00,16.9,5.8,30.18,WNW,301,10.1,10.5,61,0.00,,---,0.00,VWS V14.01,2013-03-13 03:47:00,
2013-03-12 22:52:00,16.7,6.0,30.18,NW,317,8.7,10.5,62,0.00,,---,0.00,VWS V14.01,2013-03-13 03:52:00,
2013-03-12 22:57:00,16.7,6.0,30.18,NNW,327,8.7,10.5,62,0.00,,---,0.00,VWS V14.01,2013-03-13 03:57:00,
2013-03-12 23:00:00,16.5,5.8,30.18,WNW,294,5.8,10.1,62,0.00,,---,0.00,VWS V14.01,2013-03-13 04:00:00,
2013-03-12 23:01:00,16.5,5.8,30.18,NW,308,6.3,7.6,62,0.00,,---,0.00,VWS V14.01,2013-03-13 04:01:00,
2013-03-12 23:02:00,16.5,5.8,30.18,NW,324,8.7,11.0,62,0.00,,---,0.00,VWS V14.01,2013-03-13 04:02:00,
2013-03-12 23:03:00,16.5,5.8,30.18,NW,308,5.4,8.7,62,0.00,,---,0.00,VWS V14.01,2013-03-13 04:03:00,
2013-03-12 23:09:00,16.5,5.8,30.18,NNW,328,5.8,10.1,62,0.00,,---,0.00,VWS V14.01,2013-03-13 04:09:00,
2013-03-12 23:14:00,16.2,5.4,30.18,NW,315,8.1,11.0,62,0.00,,---,0.00,VWS V14.01,2013-03-13 04:14:00,
2013-03-12 23:19:00,16.0,5.6,30.18,NW,318,11.0,11.0,63,0.00,,---,0.00,VWS V14.01,2013-03-13 04:19:00,
2013-03-12 23:24:00,16.0,5.6,30.18,NW,326,8.7,10.5,63,0.00,,---,0.00,VWS V14.01,2013-03-13 04:24:00,
2013-03-12 23:30:00,16.2,5.8,30.18,NW,305,5.8,8.3,63,0.00,,---,0.00,VWS V14.01,2013-03-13 04:30:00,
2013-03-12 23:35:00,16.0,5.6,30.18,NW,318,5.4,7.6,63,0.00,,---,0.00,VWS V14.01,2013-03-13 04:35:00,
2013-03-12 23:41:00,16.0,5.6,30.18,NW,313,5.8,7.6,63,0.00,,---,0.00,VWS V14.01,2013-03-13 04:41:00,
2013-03-12 23:47:00,15.8,5.8,30.18,WNW,297,5.8,8.1,64,0.00,,---,0.00,VWS V14.01,2013-03-13 04:47:00,
2013-03-12 23:53:00,15.6,5.6,30.21,WNW,288,5.4,9.6,64,0.00,,---,0.00,VWS V14.01,2013-03-13 04:53:00,
2013-03-12 23:59:00,15.4,5.4,30.21,NW,314,6.3,8.7,64,0.00,,---,0.00,VWS V14.01,2013-03-13 04:59:00,